Regional Weather Roundup
Issued by NWS Kansas City/Pleasant Hill, MO

Home | Current Version | Previous Version | Graphics & Text | Print | Product List | Glossary Off
Versions: 1 2 3 4 5 6 7 8 9 10 11 12 13 14 15 16 17 18 19 20 21 22 23 24 25 26 27 28 29 30 31 32 33 34 35 36 37 38 39 40 41 42 43 44 45 46 47 48 49 50

000
ASUS43 KEAX 220211
RWREAX

WEATHER ROUNDUP FOR EASTERN KANSAS AND NORTHWEST MISSOURI
NATIONAL WEATHER SERVICE KANSAS CITY/PLEASANT HILL MO
800 PM CST FRI NOV 21 2014

KSZ040-057-103>105-MOZ028-029-037-043-220300-
...KANSAS CITY METROPOLITAN AREA...

CITY           SKY/WX    TMP DP  RH WIND       PRES   REMARKS
K.C. INTL      CLOUDY    41  37  86 SE7       30.07S
K.C. DOWNTOWN  CLOUDY    47  39  74 SE7       30.07F
LEES SUMMIT    CLOUDY    45  39  79 S6        30.09R
OLATHE - IXD   CLOUDY    45  41  86 SE10      30.07S
OLATHE - OJC   CLOUDY    45  41  86 SE9       30.06F
LAWRENCE       CLOUDY    43  39  86 E7        30.06F

$$

MOZ001>008-011>017-020>025-030>033-038>040-044>046-053-054-220300-
...NORTHERN AND CENTRAL MISSOURI...

CITY           SKY/WX    TMP DP  RH WIND       PRES   REMARKS
ST. JOSEPH     CLOUDY    40  33  76 SE7       30.09S
MOSBY          CLOUDY    43  36  75 SE7       30.09S
WARRENSBURG    CLOUDY    45  37  76 SE7       30.10S
WHITEMAN AFB   CLOUDY    45  39  79 S12       30.10S
CLINTON        CLOUDY    48  43  81 S9        30.12S
SEDALIA        MOCLDY    45  31  58 S13       30.13S
WARSAW         NOT AVBL
MARSHALL       CLOUDY    43  36  75 SE6       30.13S
CHILLICOTHE      N/A     39  31  72 SE5       30.12F
MOBERLY        DRIZZLE   37  30  75 SE9       30.15F WCI  31
KIRKSVILLE     CLOUDY    38  25  59 SE14G22   30.14F WCI  30

$$

MOZ041-047>049-056>058-063>065-088>090-097-220300-
...EASTERN AND SOUTHERN MISSOURI...

CITY           SKY/WX    TMP DP  RH WIND       PRES   REMARKS
ST. LOUIS INTL CLOUDY    43  23  45 SE13      30.26F
SPIRIT OF STL  CLOUDY    43  25  49 SE5       30.25S
COLUMBIA       CLOUDY    44  28  53 SE10      30.16F
JEFFERSON CITY CLOUDY    46  31  55 SE10      30.18F
ROLLA          CLOUDY    42  35  76 S12       30.18S
LEBANON        CLOUDY    43  39  87 S14       30.18R
OSAGE BEACH    CLOUDY    45  36  70 S10       30.17S
SPRINGFIELD    CLOUDY    43  40  89 SE14      30.15R
BRANSON        CLOUDY    43  41  93 SE9       30.19S FOG
NEVADA         CLOUDY    46  43  87 SE14      30.12S
JOPLIN         CLOUDY    50  45  83 SE10      30.12R
WEST PLAINS    FOG       38  37  97 SE9       30.24F VSB 3/4 WCI  31

$$

IAZ060-094-KSZ022-034>040-054-083-096-NEZ052-066-093-220300-
...KANSAS...SOUTHEAST NEBRASKA AND IOWA...

CITY           SKY/WX    TMP DP  RH WIND       PRES   REMARKS
TOPEKA         CLOUDY    41  39  93 CALM      30.06F FOG
MANHATTAN      FOG       36  36 100 NE3       30.05F VSB 1/4
EMPORIA        FOG       41  41 100 CALM      30.04S VSB 1/4
CHANUTE        CLOUDY    54  51  90 SE12      30.07S
WICHITA        FOG       45  44  97 SW5       30.03S VSB 1/4
OMAHA          CLOUDY    37  34  89 S17       30.04F FOG     WCI  27
LINCOLN        CLOUDY    38  34  85 S13       30.04S FOG     WCI  30
FALLS CITY     CLOUDY    35  33  92 SE5       30.06F WCI  31
LAMONI         CLOUDY    35  29  78 SE8       30.08F WCI  29
DES MOINES     CLOUDY    37  26  64 S10       30.09F WCI  30

$$




USA.gov is the U.S. government's official web portal to all federal, state and local government web resources and services.